Pickwick Lake Weather Center

Moon Phase Calendar



Pickwick Lake Water Level
Online Cameras

 


      

Current Conditions in Cherokee
6/22/2024 4:21:59 AM

72°F
Feels Like 73
Clouds
Humidity
93%
Pressure
29.35"
Wind
1.7 mph (S)
Dew Point
70°F
UV Index
0/10 (Low)
Visibility
6 mi

Hourly Forecast

Date & Time Sat, Jun 22
4:00 AM
Sat, Jun 22
5:00 AM
Sat, Jun 22
6:00 AM
Sat, Jun 22
7:00 AM
Sat, Jun 22
8:00 AM
Sat, Jun 22
9:00 AM
Sat, Jun 22
10:00 AM
Sat, Jun 22
11:00 AM
Sat, Jun 22
12:00 PM
Sat, Jun 22
1:00 PM
Sat, Jun 22
2:00 PM
Sat, Jun 22
3:00 PM
Sat, Jun 22
4:00 PM
Sat, Jun 22
5:00 PM
Sat, Jun 22
6:00 PM
Sat, Jun 22
7:00 PM
Sat, Jun 22
8:00 PM
Sat, Jun 22
9:00 PM
Sat, Jun 22
10:00 PM
Sat, Jun 22
11:00 PM
Sun, Jun 23
12:00 AM
Sun, Jun 23
1:00 AM
Sun, Jun 23
2:00 AM
Sun, Jun 23
3:00 AM
Sun, Jun 23
4:00 AM
Sun, Jun 23
5:00 AM
Sun, Jun 23
6:00 AM
Sun, Jun 23
7:00 AM
Sun, Jun 23
8:00 AM
Sun, Jun 23
9:00 AM
Sun, Jun 23
10:00 AM
Sun, Jun 23
11:00 AM
Sun, Jun 23
12:00 PM
Sun, Jun 23
1:00 PM
Sun, Jun 23
2:00 PM
Sun, Jun 23
3:00 PM
Sun, Jun 23
4:00 PM
Sun, Jun 23
5:00 PM
Sun, Jun 23
6:00 PM
Sun, Jun 23
7:00 PM
Sun, Jun 23
8:00 PM
Sun, Jun 23
9:00 PM
Sun, Jun 23
10:00 PM
Sun, Jun 23
11:00 PM
Mon, Jun 24
12:00 AM
Mon, Jun 24
1:00 AM
Mon, Jun 24
2:00 AM
Mon, Jun 24
3:00 AM
Condition
Clouds

Clouds

Clouds

Clouds

Clear

Clear

Clear

Clear

Clear

Clear

Clouds

Clouds

Clouds

Clouds

Clouds

Clouds

Clouds

Clouds

Clouds

Clouds

Clouds

Clouds

Clouds

Clear

Clear

Clear

Clear

Clear

Clouds

Clouds

Clouds

Clouds

Clear

Clouds

Clouds

Clouds

Clouds

Clouds

Clouds

Clouds

Clouds

Clouds

Clouds

Clouds

Clouds

Clouds

Clouds

Clouds
Temperature 72°F72°F71°F73°F77°F83°F86°F89°F92°F93°F94°F94°F94°F92°F88°F84°F80°F77°F76°F75°F74°F73°F73°F73°F72°F72°F71°F74°F78°F83°F87°F91°F93°F94°F94°F91°F89°F89°F90°F86°F83°F83°F81°F78°F78°F77°F77°F76°F
Feels Like 73°F73°F72°F74°F78°F85°F89°F92°F94°F95°F95°F95°F95°F94°F92°F88°F80°F78°F77°F76°F75°F74°F73°F73°F73°F72°F71°F75°F79°F85°F89°F93°F95°F97°F98°F97°F96°F96°F96°F92°F87°F86°F84°F79°F79°F78°F78°F77°F
Cloudiness 38%37%35%39%8%0%0%0%0%0%43%53%58%53%54%62%75%53%48%47%44%38%15%10%7%7%8%8%27%17%14%11%10%11%67%85%82%85%81%78%100%100%92%69%70%71%38%50%
Visibility 6 mi6 mi6 mi6 mi6 mi6 mi6 mi6 mi6 mi6 mi6 mi6 mi6 mi6 mi6 mi6 mi6 mi6 mi6 mi6 mi6 mi6 mi6 mi6 mi6 mi6 mi6 mi6 mi6 mi6 mi6 mi6 mi6 mi6 mi6 mi6 mi6 mi6 mi6 mi6 mi6 mi6 mi6 mi6 mi6 mi6 mi6 mi6 mi
Precipitation 0%0%0%0%0%0%0%0%0%0%0%0%0%0%0%0%0%0%0%0%0%0%0%0%0%0%0%0%0%0%0%0%0%0%0%0%0%0%0%0%0%0%0%0%0%0%0%0%
Humidity 93%90%88%84%73%61%54%48%43%39%37%36%36%43%54%64%67%68%69%69%69%70%70%71%72%73%75%76%66%58%49%43%41%40%41%51%56%57%53%64%62%61%66%72%75%78%80%84%
Dew Point 70°F69°F68°F68°F68°F67°F67°F66°F65°F64°F63°F62°F62°F66°F69°F70°F67°F66°F65°F64°F63°F62°F62°F62°F62°F62°F62°F65°F66°F66°F65°F65°F65°F66°F66°F70°F71°F71°F70°F72°F69°F68°F68°F68°F69°F69°F70°F70°F
Pressure 29.35"29.5"29.65"29.8"29.97"30.09"30.09"30.06"30.06"30.03"30"29.97"29.97"29.94"29.94"29.94"29.94"29.94"29.97"29.97"29.97"29.97"29.94"29.94"29.94"29.94"29.94"29.94"29.97"29.97"29.94"29.94"29.94"29.91"29.88"29.88"29.85"29.85"29.85"29.85"29.85"29.88"29.88"29.88"29.88"29.88"29.88"29.88"
Wind Speed 1.7 mph2.5 mph2.4 mph2.3 mph2.4 mph3.6 mph4.2 mph4.1 mph3.9 mph4.4 mph5.3 mph5.9 mph5.4 mph3.4 mph2.3 mph3.8 mph2.8 mph1.3 mph1.2 mph1.7 mph2.6 mph2.4 mph2.1 mph3 mph3.8 mph3.5 mph3.1 mph2.9 mph4.6 mph5.4 mph6.5 mph7.2 mph7.4 mph7.4 mph7.6 mph5.7 mph5.6 mph6.4 mph6.9 mph4.6 mph2.9 mph3.2 mph2.6 mph2.2 mph0.9 mph1.6 mph1.7 mph2 mph
Wind
Direction
185°
S
163°
SSE
170°
S
155°
SSE
156°
SSE
161°
SSE
172°
S
178°
S
175°
S
159°
SSE
157°
SSE
161°
SSE
171°
S
182°
S
238°
WSW
276°
W
284°
WNW
270°
W
241°
WSW
247°
WSW
214°
SW
236°
SW
239°
WSW
211°
SSW
197°
SSW
202°
SSW
239°
WSW
239°
WSW
249°
WSW
241°
WSW
240°
WSW
248°
WSW
257°
WSW
269°
W
284°
WNW
280°
W
250°
WSW
248°
WSW
246°
WSW
247°
WSW
271°
W
301°
WNW
309°
NW
310°
NW
290°
WNW
294°
WNW
283°
WNW
271°
W

Daily Forecast

Date High Low Precip. Humidity
Today
Jun 22

Clear
94 °F
71 °F
0%
43%
Sunday
Jun 23

Clear
94 °F
71 °F
0%
41%
Monday
Jun 24

Rain
97 °F
74 °F
47%
48%
Tuesday
Jun 25

Rain
96 °F
74 °F
100%
42%
Wednesday
Jun 26

Rain
93 °F
72 °F
100%
48%
Thursday
Jun 27

Rain
92 °F
72 °F
100%
55%
Friday
Jun 28

Clear
97 °F
72 °F
0%
45%
Saturday
Jun 29

Rain
97 °F
77 °F
27%
44%
Sunday
Jun 30

Rain
95 °F
75 °F
100%
50%
Monday
Jul 1

Rain
94 °F
75 °F
94%
52%
Tuesday
Jul 2

Rain
94 °F
74 °F
100%
48%
Wednesday
Jul 3

Rain
93 °F
75 °F
100%
56%
Thursday
Jul 4

Rain
88 °F
71 °F
100%
62%
Friday
Jul 5

Rain
91 °F
73 °F
100%
60%
Saturday
Jul 6

Rain
90 °F
75 °F
100%
72%
Sunday
Jul 7

Rain
87 °F
74 °F
60%
66%

Temperature 8-14 Day Outlook



Precipitation 8-14 Day Outlook






About Us
Contact Us
Site Map
Search Site
Advertise With Us
   
www.PickwickLake.info
THE PICKWICK LAKE WEBSITE

Copyright 2024, Lakes Online
Privacy    |    Legal